Weather History for Zephyrhills, FL

Change the Weather History Date:

Wednesday, December 26, 2012

  Actual Average (KPCM) Record (KPCM)
Temperature  
Mean Temperature 64 °F -  
Max Temperature 77 °F 72 °F 86 °F (1941)
Min Temperature 50 °F 48 °F 20 °F (1983)
Degree Days  
Heating Degree Days 2    
Growing Degree Days 14 (Base 50)    
Moisture  
Dew Point 57 °F    
Average Humidity 82    
Maximum Humidity 100    
Minimum Humidity 56    
Precipitation  
Precipitation 0.34 in - - ()
Sea Level Pressure  
Sea Level Pressure 29.90 in    
Wind  
Wind Speed - (North)    
Max Wind Speed -    
Max Gust Speed -    
Visibility 10 miles    
Events Rain , Thunderstorm    
Averages and records for this station are not official NWS values.
T = Trace of Precipitation, MM = Missing Value Source: NWS Daily Summary

Daily Weather History Graph

Daily Weather History Graph

Search for Another Location

Airport:

Trip Planner

Search our weather history database for the weather conditions in past years. The results will help you decide how hot, cold, wet, or windy it might be!

Date:

Astronomy

Dec. 26, 2012 Rise Set
Actual Time 7:18 AM EST 5:40 PM EST
Civil Twilight 6:52 AM EST 6:06 PM EST
Nautical Twilight 6:23 AM EST 6:35 PM EST
Astronomical Twilight 5:54 AM EST 7:04 PM EST
Moon 4:30 PM EST (12/26) 5:43 AM EST (12/26)
Length of Visible Light 11h 13m
Length of Day
10h 21m
Waxing Gibbous, 97% of the Moon is Illuminated
Dec 26
Waxing Gibbous
Dec 28
Full
Jan 4
Last Quarter
Jan 11
New
Jan 18
First Quarter

Hourly Weather History & Observations

Time (EST) Temp. Dew Point Humidity Pressure Visibility Wind Dir Wind Speed Gust Speed Precip Events Conditions
12:15 AM 55.4 °F 55.4 °F 100% 29.92 in 10.0 mi North - - N/A   Clear
12:35 AM 59.0 °F 59.0 °F 100% 29.92 in 10.0 mi North - - N/A   Clear
12:55 AM 60.8 °F 59.0 °F 94% 29.92 in 10.0 mi North - - N/A   Clear
1:15 AM 60.8 °F 59.0 °F 94% 29.92 in 10.0 mi North - - N/A   Clear
1:35 AM 60.8 °F 59.0 °F 94% 29.93 in 10.0 mi North - - N/A   Clear
1:55 AM 60.8 °F 59.0 °F 94% 29.93 in 10.0 mi North - - N/A   Clear
2:15 AM 60.8 °F 59.0 °F 94% 29.92 in 10.0 mi North - - N/A   Clear
2:35 AM 62.6 °F 60.8 °F 94% 29.91 in 10.0 mi North - - N/A   Scattered Clouds
2:55 AM 62.6 °F 60.8 °F 94% 29.91 in 10.0 mi North - - N/A   Overcast
3:15 AM 62.6 °F 60.8 °F 94% 29.91 in 10.0 mi North - - N/A   Overcast
3:35 AM 62.6 °F 60.8 °F 94% 29.90 in 10.0 mi North - - N/A   Overcast
3:55 AM 62.6 °F 60.8 °F 94% 29.90 in 10.0 mi North - - N/A   Overcast
4:15 AM 64.4 °F 60.8 °F 88% 29.89 in 10.0 mi North - - N/A   Mostly Cloudy
4:35 AM 64.4 °F 60.8 °F 88% 29.88 in 10.0 mi North - - N/A   Mostly Cloudy
4:55 AM 64.4 °F 60.8 °F 88% 29.87 in 10.0 mi North - - N/A   Scattered Clouds
5:15 AM 64.4 °F 60.8 °F 88% 29.87 in 10.0 mi North - - N/A   Scattered Clouds
5:35 AM 64.4 °F 60.8 °F 88% 29.87 in 10.0 mi North - - N/A   Mostly Cloudy
6:15 AM 66.2 °F 62.6 °F 88% 29.87 in 10.0 mi North - - N/A   Scattered Clouds
6:35 AM 66.2 °F 62.6 °F 88% 29.87 in 10.0 mi North - - N/A   Scattered Clouds
6:55 AM 66.2 °F 62.6 °F 88% 29.87 in 10.0 mi North - - N/A   Clear
7:15 AM 66.2 °F 64.4 °F 94% 29.87 in 10.0 mi North - - N/A   Scattered Clouds
7:35 AM 66.2 °F 64.4 °F 94% 29.85 in 10.0 mi North - - N/A   Scattered Clouds
7:55 AM 66.2 °F 64.4 °F 94% 29.85 in 10.0 mi North - - N/A   Scattered Clouds
8:15 AM 68.0 °F 64.4 °F 88% 29.86 in 10.0 mi North - - N/A   Scattered Clouds
8:35 AM 68.0 °F 66.2 °F 94% 29.86 in 10.0 mi North - - N/A   Scattered Clouds
8:55 AM 69.8 °F 66.2 °F 88% 29.86 in 10.0 mi North - - N/A   Clear
9:15 AM 71.6 °F 66.2 °F 83% 29.86 in 10.0 mi North - - N/A   Scattered Clouds
9:35 AM 71.6 °F 66.2 °F 83% 29.85 in 10.0 mi North - - N/A   Overcast
9:55 AM 71.6 °F 66.2 °F 83% 29.85 in 10.0 mi North - - N/A   Overcast
10:15 AM 73.4 °F 66.2 °F 78% 29.86 in 10.0 mi North - - N/A   Overcast
10:35 AM 73.4 °F 66.2 °F 78% 29.86 in 10.0 mi North - - N/A   Overcast
10:55 AM 73.4 °F 64.4 °F 73% 29.84 in 10.0 mi North - - N/A Thunderstorm Overcast
11:15 AM 77.0 °F 62.6 °F 61% 29.84 in 7.0 mi North - - N/A   Overcast
11:35 AM 77.0 °F 62.6 °F 61% 29.83 in 7.0 mi North - - N/A   Overcast
11:55 AM 73.4 °F 64.4 °F 73% 29.84 in 7.0 mi North - - N/A Rain , Thunderstorm Thunderstorms and Rain
12:15 PM 64.4 °F 62.6 °F 94% 29.86 in 2.5 mi North - - 0.22 in Rain Heavy Rain
12:35 PM 64.4 °F 64.4 °F 100% 29.85 in 7.0 mi North - - 0.34 in   Mostly Cloudy
12:55 PM 68.0 °F 66.2 °F 94% 29.84 in 7.0 mi North - - 0.34 in   Mostly Cloudy
1:15 PM 68.0 °F 62.6 °F 83% 29.84 in 7.0 mi North - - N/A   Mostly Cloudy
1:35 PM 69.8 °F 60.8 °F 73% 29.84 in 10.0 mi North - - N/A   Mostly Cloudy
1:55 PM 69.8 °F 59.0 °F 68% 29.85 in 7.0 mi North - - N/A   Mostly Cloudy
2:15 PM 69.8 °F 59.0 °F 68% 29.84 in 10.0 mi North - - N/A   Overcast
2:55 PM 69.8 °F 53.6 °F 56% 29.85 in 10.0 mi North - - N/A   Scattered Clouds
3:15 PM 69.8 °F 53.6 °F 56% 29.85 in 10.0 mi North - - N/A   Mostly Cloudy
3:35 PM 68.0 °F 53.6 °F 60% 29.86 in 10.0 mi North - - N/A   Scattered Clouds
3:55 PM 68.0 °F 53.6 °F 60% 29.86 in 10.0 mi North - - N/A   Scattered Clouds
4:15 PM 64.4 °F 53.6 °F 68% 29.87 in 10.0 mi North - - N/A   Mostly Cloudy
4:35 PM 64.4 °F 53.6 °F 68% 29.89 in 10.0 mi North - - N/A   Mostly Cloudy
4:55 PM 62.6 °F 51.8 °F 68% 29.89 in 10.0 mi North - - N/A   Mostly Cloudy
5:15 PM 62.6 °F 50.0 °F 63% 29.90 in 10.0 mi North - - N/A   Mostly Cloudy
5:35 PM 60.8 °F 50.0 °F 68% 29.91 in 10.0 mi North - - N/A   Mostly Cloudy
5:55 PM 59.0 °F 50.0 °F 72% 29.92 in 10.0 mi North - - N/A   Mostly Cloudy
6:15 PM 59.0 °F 50.0 °F 72% 29.92 in 10.0 mi North - - N/A   Scattered Clouds
6:35 PM 59.0 °F 50.0 °F 72% 29.93 in 10.0 mi North - - N/A   Scattered Clouds
6:55 PM 57.2 °F 50.0 °F 77% 29.94 in 10.0 mi North - - N/A   Scattered Clouds
7:15 PM 55.4 °F 50.0 °F 82% 29.95 in 10.0 mi North - - N/A   Clear
7:35 PM 55.4 °F 48.2 °F 77% 29.96 in 10.0 mi North - - N/A   Mostly Cloudy
7:55 PM 55.4 °F 48.2 °F 77% 29.97 in 10.0 mi North - - N/A   Mostly Cloudy
8:15 PM 55.4 °F 48.2 °F 77% 29.98 in 10.0 mi North - - N/A   Mostly Cloudy
8:35 PM 55.4 °F 48.2 °F 77% 29.99 in 10.0 mi North - - N/A   Mostly Cloudy
8:55 PM 53.6 °F 48.2 °F 82% 29.99 in 10.0 mi North - - N/A   Mostly Cloudy
9:15 PM 53.6 °F 46.4 °F 77% 30.00 in 10.0 mi North - - N/A   Scattered Clouds
9:35 PM 53.6 °F 46.4 °F 77% 30.01 in 10.0 mi North - - N/A   Clear
9:55 PM 51.8 °F 46.4 °F 82% 30.01 in 10.0 mi North - - N/A   Clear
10:15 PM 51.8 °F 46.4 °F 82% 30.02 in 10.0 mi North - - N/A   Clear
10:35 PM 50.0 °F 46.4 °F 87% 30.02 in 10.0 mi North - - N/A   Clear
10:55 PM 50.0 °F 44.6 °F 82% 30.02 in 10.0 mi North - - N/A   Clear
11:15 PM 50.0 °F 44.6 °F 82% 30.03 in 10.0 mi North - - N/A   Clear
11:35 PM 50.0 °F 44.6 °F 82% 30.03 in 10.0 mi North - - N/A   Clear
11:55 PM 50.0 °F 44.6 °F 82% 30.03 in 10.0 mi North - - N/A   Clear